Regional Weather Roundup
Issued by NWS

Home | Current Version | Previous Version | Graphics & Text | Print | Product List | Glossary On
Versions: 1 2 3 4 5 6 7 8 9 10 11 12 13 14 15 16 17 18 19 20 21 22 23 24 25 26 27 28 29 30 31 32 33 34 35 36 37 38 39 40 41 42 43 44 45 46 47 48 49 50
073
ASUS43 KFSD 241702
RWRSD

WEATHER ROUNDUP FOR SOUTH DAKOTA
NATIONAL WEATHER SERVICE SIOUX FALLS SD
1200 PM CDT SAT SEP 24 2016

NOTE: "FAIR" INDICATES FEW OR NO CLOUDS BELOW 12,000 FEET WITH NO
SIGNIFICANT WEATHER AND/OR OBSTRUCTIONS TO VISIBILITY.


SDZ001>005-009-010-012>017-241800-
NORTHWEST AND NORTH CENTRAL SOUTH DAKOTA

CITY           SKY/WX    TMP DP  RH WIND       PRES   REMARKS
BUFFALO          N/A     60  55  83 SW16      29.66R
FAITH            N/A     64  57  78 SW15      29.76R
MOBRIDGE       SUNNY     71  59  65 SE15      29.73F
$$

SDZ012>016-024>037-041>051-057-063-072>074-241800-
SOUTHWEST AND SOUTH CENTRAL SOUTH DAKOTA

CITY           SKY/WX    TMP DP  RH WIND       PRES   REMARKS
RAPID CTY ARPT SUNNY     62  44  51 W9        29.82R
PIERRE         SUNNY     70  51  51 SW18      29.80R
CUSTER         CLOUDY    45  40  82 W15G25    29.89R
ELLSWORTH AFB  MOSUNNY   63  44  50 SW15      29.81R
PHILIP         SUNNY     69  48  47 SW23G29   29.82S
PINE RIDGE     SUNNY     63  43  48 W17G29    29.91R
WINNER         FAIR      73  51  46 SW12      29.86S
$$

SDZ004>011-016>023-039-040-241800-
NORTHEAST SOUTH DAKOTA

CITY           SKY/WX    TMP DP  RH WIND       PRES   REMARKS
ABERDEEN       CLOUDY    77  65  66 S24G30    29.81F
WATERTOWN      CLOUDY    74  66  76 S16G28    29.89F
SISSETON         N/A     75  67  76 S18G26    29.86F
$$

SDZ017-020-022-023-036>040-048>070-241800-
SOUTHEAST SOUTH DAKOTA

CITY           SKY/WX    TMP DP  RH WIND       PRES   REMARKS
SIOUX FALLS    CLOUDY    77  68  73 S13       29.91S
HURON          CLOUDY    76  66  71 S18G28    29.83S
CHAMBERLAIN    CLOUDY    72  55  53 S3        29.84F
MITCHELL       HVY RAIN  73  68  84 S12G20    29.85F
YANKTON        MOSUNNY   77  70  78 S15       29.86F
$$

ABBREVIATIONS USED IN REMARKS
   TC - TEMPERATURE IN CELSIUS
  WCI - WIND CHILL INDEX
   HX - HEAT INDEX
  VSB - VISIBILITY





USA.gov is the U.S. government's official web portal to all federal, state and local government web resources and services.